User: anonymous   Login
Location: Unspecified
(0.0000°N, 0.0000°E)
Time: 09:38:50
(UTC+00:00)
Language:

Transit 2A Rocket - Orbit

View from above orbital plane
View from above orbital plane
View from above satellite
View from above satellite

Ground track
Ground track

The orbit data is extracted from the following two-line orbital elements,

1 00047U 60007C   16343.55168108 -.00000017  00000-0  21395-4 0  9998
2 00047  66.6660 355.4680 0226503 166.5161 194.2137 14.41882526949581
Epoch (UTC): 08 December 2016 13:14:25
Eccentricity: 0.0226503
inclination: 66.6660°
perigee height: 591 km
apogee height: 914 km
right ascension of ascending node: 355.4680°
argument of perigee: 166.5161°
revolutions per day: 14.41882526
mean anomaly at epoch: 194.2137°
orbit number at epoch: 94958

The dashed part of the orbit path shows where the satellite is in the earth's shadow,  

DLR